Weather History for KABI - May, 2014

Change the Weather History Date:

Monday, May 12, 2014

  Actual Average Record
Temperature  
Mean Temperature 69 °F 72 °F  
Max Temperature 78 °F 84 °F 105 °F (1886)
Min Temperature 59 °F 60 °F 36 °F (1979)
Degree Days  
Heating Degree Days 0 1  
Month to date heating degree days 8 12  
Since 1 July heating degree days 2805 2554  
Cooling Degree Days 4 8  
Month to date cooling degree days 138 78  
Year to date cooling degree days 338 211  
Growing Degree Days 19 (Base 50)    
Moisture  
Dew Point 54 °F    
Average Humidity 54    
Maximum Humidity 74    
Minimum Humidity 33    
Precipitation  
Precipitation 0.00 in 0.09 in 2.28 in (1965)
Month to date precipitation 0.85 1.03  
Year to date precipitation 2.62 6.79  
Sea Level Pressure  
Sea Level Pressure 29.79 in    
Wind  
Wind Speed 16 mph (NNE)    
Max Wind Speed 31 mph    
Max Gust Speed 41 mph    
Visibility 10 miles    
Events      
T = Trace of Precipitation, MM = Missing Value Source: NWS Daily Summary

Daily Weather History Graph

Daily Weather History Graph

Search for Another Location

Airport or City:

Trip Planner

Search our weather history database for the weather conditions in past years. The results will help you decide how hot, cold, wet, or windy it might be!

Date:

Astronomy

May. 12, 2014 Rise Set
Actual Time 6:42 AM CDT 8:27 PM CDT
Civil Twilight 6:15 AM CDT 8:54 PM CDT
Nautical Twilight 5:43 AM CDT 9:27 PM CDT
Astronomical Twilight 5:09 AM CDT 10:01 PM CDT
Moon 6:34 PM CDT (5/12) 5:14 AM CDT (5/12)
Length of Visible Light 14h 38m
Length of Day
13h 45m
Waxing Gibbous, 95% of the Moon is Illuminated
May 12
Waxing Gibbous
May 14
Full
May 21
Last Quarter
May 28
New
Jun 5
First Quarter

Hourly Weather History & Observations

Time (CDT) Temp. Dew Point Humidity Pressure Visibility Wind Dir Wind Speed Gust Speed Precip Events Conditions
12:52 AM 78.1 °F 64.0 °F 62% 29.57 in 10.0 mi SSE 27.6 mph 36.8 mph N/A   Clear
1:52 AM 77.0 °F 64.9 °F 66% 29.56 in 10.0 mi SSE 27.6 mph 39.1 mph N/A   Clear
2:52 AM 75.9 °F 64.9 °F 69% 29.56 in 10.0 mi South 26.5 mph 36.8 mph N/A   Clear
3:52 AM 75.9 °F 66.0 °F 71% 29.56 in 10.0 mi South 21.9 mph 32.2 mph N/A   Clear
4:34 AM 75.9 °F 66.0 °F 71% 29.74 in 10.0 mi Variable 4.6 mph 20.7 mph N/A   Scattered Clouds
4:52 AM 77.0 °F 64.9 °F 66% 29.65 in 10.0 mi SSW 13.8 mph 20.7 mph N/A   Overcast
5:52 AM 75.9 °F 66.0 °F 71% 29.65 in 10.0 mi South 12.7 mph 23.0 mph N/A   Partly Cloudy
6:52 AM 75.0 °F 64.9 °F 71% 29.67 in 9.0 mi South 13.8 mph - N/A   Mostly Cloudy
7:52 AM 75.0 °F 66.0 °F 73% 29.71 in 9.0 mi SSE 11.5 mph - N/A   Partly Cloudy
8:24 AM 66.0 °F 52.0 °F 60% 29.84 in 10.0 mi North 17.3 mph - N/A   Overcast
9:52 AM 63.0 °F 48.0 °F 58% 29.84 in 10.0 mi NNW 18.4 mph - N/A   Overcast
10:52 AM 64.0 °F 46.9 °F 54% 29.87 in 10.0 mi North 16.1 mph - N/A   Overcast
11:35 AM 66.0 °F 48.0 °F 52% 29.94 in 10.0 mi NNW 17.3 mph - N/A   Overcast
11:52 AM 66.9 °F 46.9 °F 49% 29.88 in 10.0 mi North 20.7 mph - N/A   Mostly Cloudy
11:59 AM 68.0 °F 48.0 °F 49% 29.95 in 10.0 mi North 19.6 mph - N/A   Mostly Cloudy
12:52 PM 68.0 °F 46.9 °F 47% 29.88 in 10.0 mi North 20.7 mph 25.3 mph N/A   Overcast
1:52 PM 66.9 °F 46.9 °F 49% 29.89 in 10.0 mi North 18.4 mph 27.6 mph N/A   Mostly Cloudy
2:52 PM 69.1 °F 46.9 °F 45% 29.84 in 10.0 mi NNW 20.7 mph - N/A   Mostly Cloudy
3:52 PM 72.0 °F 48.0 °F 43% 29.83 in 10.0 mi North 19.6 mph 25.3 mph N/A   Clear
4:52 PM 75.0 °F 48.0 °F 38% 29.81 in 10.0 mi North 11.5 mph 25.3 mph N/A   Partly Cloudy
5:52 PM 77.0 °F 46.9 °F 34% 29.80 in 10.0 mi North 17.3 mph 24.2 mph N/A   Clear
6:52 PM 73.9 °F 48.0 °F 40% 29.84 in 10.0 mi NE 13.8 mph 25.3 mph N/A   Clear
7:52 PM 73.0 °F 44.1 °F 35% 29.87 in 10.0 mi North 18.4 mph - N/A   Clear
8:52 PM 66.0 °F 48.9 °F 54% 29.92 in 10.0 mi ENE 8.1 mph - N/A   Clear
10:52 PM 61.0 °F 48.9 °F 64% 30.02 in 10.0 mi ENE 10.4 mph - N/A   Clear
11:52 PM 60.1 °F 48.9 °F 67% 30.04 in 10.0 mi NNE 10.4 mph - N/A   Clear